Dayton, OH

3:06 PM EDT on May 29, 2017 (GMT -0400)
Cox-Dayton International

Weather History for KDAY - November, 2014

Change the Weather History Date:

Monday, November 24, 2014

  Actual Average Record
Temperature  
Mean Temperature 49 °F 39 °F  
Max Temperature 62 °F 47 °F 68 °F (1931)
Min Temperature 36 °F 32 °F 3 °F (1950)
Degree Days  
Heating Degree Days 16 26  
Month to date heating degree days 646 499  
Since 1 July heating degree days 1050 946  
Cooling Degree Days 0 0  
Month to date cooling degree days 0 0  
Year to date cooling degree days 977 891  
Moisture  
Dew Point 44 °F    
Average Humidity 76    
Maximum Humidity 93    
Minimum Humidity 59    
Precipitation  
Precipitation 0.26 in 0.12 in 1.23 in (1900)
Month to date precipitation 1.94 2.71  
Year to date precipitation 33.09 37.25  
Snow  
Snow 0.00 in 0.10 in 0.70 in (1971)
Month to date snowfall 4.1 0.4  
Since 1 July snowfall 4.1 0.8  
Since 1 September snowfall 4.1 0.8  
Snow Depth 0.00 in    
Sea Level Pressure  
Sea Level Pressure 29.47 in    
Wind  
Wind Speed 23 mph (SW)    
Max Wind Speed 41 mph    
Max Gust Speed 51 mph    
Visibility 9 miles    
Events Rain    
T = Trace of Precipitation, MM = Missing Value Source: NWS Daily Summary

Daily Weather History Graph

Daily Weather History Graph

Search for Another Location

Airport or City:

Trip Planner

Search our weather history database for the weather conditions in past years. The results will help you decide how hot, cold, wet, or windy it might be!

Date:

Astronomy

Nov. 24, 2014 Rise Set
Actual Time 7:31 AM EST 5:15 PM EST
Civil Twilight 7:02 AM EST 5:44 PM EST
Nautical Twilight 6:29 AM EST 6:17 PM EST
Astronomical Twilight 5:56 AM EST 6:50 PM EST
Moon 9:23 AM EST (11/24) 7:35 PM EST (11/24)
Length of Visible Light 10h 42m
Length of Day
9h 43m
Waxing Crescent, 6% of the Moon is Illuminated
Nov 24
Waxing Crescent
Nov 29
First Quarter
Dec 6
Full
Dec 14
Last Quarter
Dec 21
New

Hourly Weather History & Observations

Time (EST) Temp. Windchill Dew Point Humidity Pressure Visibility Wind Dir Wind Speed Gust Speed Precip Events Conditions
12:33 AM 57.9 °F - 55.0 °F 90% 29.23 in 5.0 mi South 21.9 mph 34.5 mph 0.02 in Rain Rain
12:56 AM 57.9 °F - 55.0 °F 90% 29.21 in 5.0 mi South 23.0 mph 35.7 mph 0.04 in Rain Light Rain
1:56 AM 57.9 °F - 55.9 °F 93% 29.24 in 6.0 mi SSW 20.7 mph 35.7 mph 0.02 in Rain Light Rain
2:56 AM 57.9 °F - 55.0 °F 90% 29.27 in 5.0 mi SSW 19.6 mph 28.8 mph 0.00 in Rain Light Rain
3:56 AM 59.0 °F - 55.0 °F 87% 29.29 in 10.0 mi SSW 19.6 mph 31.1 mph 0.02 in   Overcast
4:39 AM 57.9 °F - 54.0 °F 87% 29.30 in 10.0 mi SSW 18.4 mph 27.6 mph 0.01 in   Mostly Cloudy
4:48 AM 59.0 °F - 54.0 °F 83% 29.30 in 10.0 mi SSW 19.6 mph 27.6 mph 0.01 in   Mostly Cloudy
4:56 AM 59.0 °F - 55.0 °F 87% 29.29 in 10.0 mi SSW 18.4 mph 25.3 mph 0.01 in   Mostly Cloudy
5:56 AM 60.1 °F - 55.0 °F 83% 29.27 in 10.0 mi South 21.9 mph 29.9 mph N/A   Overcast
6:56 AM 60.8 °F - 53.6 °F 77% 29.27 in 10.0 mi South 21.9 mph 29.9 mph N/A   Overcast
7:36 AM 61.0 °F - 54.0 °F 78% 29.26 in 10.0 mi South 24.2 mph 33.4 mph N/A   Mostly Cloudy
7:56 AM 61.0 °F - 54.0 °F 78% 29.24 in 10.0 mi South 23.0 mph 39.1 mph 0.00 in Rain Light Rain
8:56 AM 61.0 °F - 52.0 °F 72% 29.25 in 10.0 mi SSW 24.2 mph 39.1 mph 0.00 in Rain Light Rain
9:15 AM 59.0 °F - 52.0 °F 78% 29.31 in 0.8 mi WSW 35.7 mph 47.2 mph 0.01 in Rain Rain
9:28 AM 55.0 °F - 48.9 °F 80% 29.29 in 3.0 mi SW 33.4 mph 43.7 mph 0.13 in Rain Light Rain
9:38 AM 55.0 °F - 50.0 °F 83% 29.29 in 3.0 mi SW 29.9 mph 49.5 mph 0.16 in Rain Heavy Rain
9:56 AM 55.9 °F - 51.1 °F 84% 29.29 in 10.0 mi SW 19.6 mph 29.9 mph 0.17 in   Mostly Cloudy
10:56 AM 57.0 °F - 52.0 °F 83% 29.35 in 10.0 mi SW 25.3 mph 38.0 mph 0.00 in Rain Light Rain
11:42 AM 54.0 °F - 46.0 °F 75% 29.41 in 10.0 mi SW 29.9 mph 49.5 mph 0.00 in Rain Light Rain
11:51 AM 53.6 °F - 44.6 °F 72% 29.42 in 10.0 mi SW 41.4 mph 48.3 mph 0.00 in Rain Light Rain
11:56 AM 52.0 °F - 43.0 °F 71% 29.43 in 10.0 mi SW 34.5 mph 48.3 mph 0.00 in Rain Light Rain
12:56 PM 46.9 °F - 39.9 °F 77% 29.51 in 10.0 mi WSW 31.1 mph 47.2 mph 0.00 in Rain Light Rain
1:56 PM 45.0 °F 35.6 °F 37.0 °F 74% 29.57 in 10.0 mi WSW 27.6 mph 43.7 mph 0.00 in   Overcast
2:56 PM 43.0 °F 33.1 °F 35.1 °F 74% 29.63 in 10.0 mi SW 26.5 mph 39.1 mph N/A   Overcast
3:56 PM 43.0 °F 32.5 °F 33.1 °F 68% 29.67 in 10.0 mi SW 29.9 mph 38.0 mph N/A   Overcast
4:56 PM 43.0 °F 34.0 °F 33.1 °F 68% 29.70 in 10.0 mi SW 21.9 mph 29.9 mph N/A   Overcast
5:03 PM 43.0 °F 33.8 °F 34.0 °F 71% 29.70 in 10.0 mi SW 23.0 mph 36.8 mph N/A   Overcast
5:56 PM 44.1 °F 34.2 °F 33.1 °F 65% 29.74 in 10.0 mi WSW 28.8 mph 38.0 mph N/A   Overcast
6:56 PM 39.0 °F 27.6 °F 27.0 °F 62% 29.80 in 10.0 mi WSW 27.6 mph 38.0 mph N/A   Mostly Cloudy
7:56 PM 39.9 °F 29.2 °F 28.0 °F 63% 29.81 in 10.0 mi WSW 25.3 mph 34.5 mph N/A   Mostly Cloudy
8:56 PM 39.0 °F 29.0 °F 28.9 °F 67% 29.86 in 10.0 mi WSW 20.7 mph 32.2 mph N/A   Clear
9:56 PM 37.9 °F 28.9 °F 28.9 °F 70% 29.87 in 10.0 mi WSW 16.1 mph - N/A   Clear
10:56 PM 37.0 °F 27.4 °F 28.9 °F 73% 29.88 in 10.0 mi WSW 17.3 mph - N/A   Partly Cloudy
11:56 PM 36.0 °F 26.7 °F 28.0 °F 73% 29.90 in 10.0 mi WSW 15.0 mph - N/A   Clear